Probability
0 0 0 0 0 0 0 0 0 0 0 0 0 0 0 0 0 0 0 0 0 0 0 0 0 0 0 0 0 0 0 0 0 0 0 0 0 0 0 0 0 0 0
0 0 0 0 0 0 0 0 0 0 0 0 0 0 0 0 0 0 0 0 0 0 0 0 0 0 0 0 0 0 0 0 0 0 0 0 0 0 0 0 0 0 0
0 0 0 0 0 0 0 0 0 0 0 0 0 0 0 0 0 0 0 0 0 0 0 0 0 0 0 0 0 0 0 0 0 0 0 0 0 0 0 0 0 0 0
0 0 0 0 0 0 0 0 0 0 0 0 0 0 0 0 0 0 0 0 0 0 0 0 0 0 0 0 0 0 0 0 0 0 0 0 0 0 0 0 0 0 0
0 0 0 0 0 0 0 0 0 0 0 0 0 0 0 0 0 0 0 0 0 0 0 0 0 0 0 0 0 0 0 0 0 0 0 0 0 0 0 0 0 0 0
0 0 0 0 0 0 0 0 0 0 0 0 0 0 0 0 0 0 0 0 0 0 0 0 0 0 0 0 0 0 0 0 0 0 0 0 0 0 0 0 0 0 0
0 0 0 0 0 0 0 0 0 0 0 0 0 0 0 0 0 0 0 0 0 0 0 0 0 0 0 0 0 0 0 0 0 0 0 0 0 0 0 0 0 0 0
0 0 0 0 0 0 0 0 0 0 0 0 0 0 0 0 0 0 0 0 0 0 0 0 0 0 0 0 0 0 0 0 0 0 0 0 0 0 0 0 0 0 0
0 0 0 0 0 0 0 0 0 0 0 0 0 0 0 0 0 0 0 0 0 0 0 0 0 0 0 0 0 0 0 0 0 0 0 0 0 0 0 0 0 0 0
0 0 0 0 0 0 0 0 0 0 0 0 0 0 0 0 0 0 0 0 0 0 0 0 0 0 0 0 0 0 0 0 0 0 0 0 0 0 0 0 0 0 0
0 0 0 0 0 0 0 0 0 0 0 0 0 0 0 0 0 0 0 0 0 0 0 0 0 0 0 0 0 0 0 0 0 0 0 0 0 0 0 0 0 0 0
0 0 0 0 0 0 0 0 0 0 0 0 0 0 0 0 0 0 0 0 0 0 0 0 0 0 0 0 0 0 0 0 0 0 0 0 0 0 0 0 0 0 0
0 0 0 0 0 0 0 0 0 0 0 0 0 0 0 0 0 0 0 0 0 0 0 0 0 0 0 0 0 0 0 0 0 0 0 0 0 0 0 0 0 0 0
0 0 0 0 0 0 0 0 0 0 0 0 0 0 0 0 0 0 0 0 0 0 0 0 0 0 0 0 0 0 0 0 0 0 0 0 0 0 0 0 0 0 0
0 0 0 0 0 0 0 0 0 0 0 0 0 0 0 0 0 0 0 0 0 0 0 0 0 0 0 0 0 0 0 0 0 0 0 0 0 0 0 0 0 0 0
0 0 0 0 0 0 0 0 0 0 0 0 0 0 0 0 0 0 0 0 0 0 0 0 0 0 0 0 0 0 0 0 0 0 0 0 0 0 0 0 0 0 0
0 0 0 0 0 0 0 0 0 0 0 0 0 0 0 0 0 0 0 0 0 0 0 0 0 0 0 0 0 0 0 0 0 0 0 0 0 0 0 0 0 0 0
0 0 0 0 0 0 0 0 0 0 0 0 0 0 0 0 0 0 0 0 0 0 0 0 0 0 0 0 0 0 0 0 0 0 0 0 0 0 0 0 0 0 0
0 0 0 0 0 0 0 0 0 0 0 0 0 0 0 0 0 0 0 0 0 0 0 0 0 0 0 0 0 0 0 0 0 0 0 0 0 0 0 0 0 0 0
0 0 0 0 0 0 0 0 0 0 0 0 0 0 0 0 0 0 0 0 0 0 0 0 0 0 0 0 0 0 0 0 0 0 0 0 0 0 0 0 0 0 0
0 0 0 0 0 0 0 0 0 0 0 0 0 0 0 0 0 0 0 0 0 0 0 0 0 0 0 0 0 0 0 0 0 0 0 0 0 0 0 0 0 0 0
0 0 0 0 0 0 0 0 0 0 0 0 0 0 0 0 0 0 0 0 0 0 0 0 0 0 0 0 0 0 0 0 0 0 0 0 0 0 0 0 0 0 0
0 0 0 0 0 0 0 0 0 0 0 0 0 0 0 0 0 0 0 0 0 0 0 0 0 0 0 0 0 0 0 0 0 0 0 0 0 0 0 0 0 0 0
0 0 0 0 0 0 0 0 0 0 0 0 0 0 0 0 0 0 0 0 0 0 0 0 0 0 0 0 0 0 0 0 0 0 0 0 0 0 0 0 0 0 0
0 0 0 0 0 0 0 0 0 0 0 0 0 0 0 0 0 0 0 0 0 0 0 0 0 0 0 0 0 0 0 0 0 0 0 0 0 0 0 0 0 0 0
0 0 0 0 0 0 0 0 0 0 0 0 0 0 0 0 0 0 0 0 0 0 0 0 0 0 0 0 0 0 0 0 0 0 0 0 0 0 0 0 0 0 0
Height
5662 5665 5669 5672 5676 5679 5682 5685 5689 5692 5695 5698 5700 5703 5706 5708 5711 5714 5716 5719 5720 5722 5724 5725 5726 5727 5728 5729 5729 5729 5728 5728 5727 5727 5726 5724 5722 5721 5719 5717 5714 5712 5710
5653 5657 5661 5664 5667 5671 5674 5677 5681 5684 5686 5689 5692 5695 5698 5700 5703 5705 5708 5710 5711 5713 5714 5715 5716 5717 5718 5718 5718 5718 5717 5717 5716 5715 5714 5712 5710 5708 5706 5704 5701 5698 5696
5645 5649 5652 5656 5659 5663 5666 5669 5672 5675 5678 5681 5684 5686 5689 5692 5694 5696 5698 5700 5701 5703 5704 5705 5705 5706 5706 5707 5707 5706 5706 5705 5704 5703 5702 5700 5698 5695 5693 5690 5688 5684 5681
5636 5640 5644 5647 5651 5654 5657 5660 5663 5666 5669 5672 5674 5677 5679 5682 5684 5686 5687 5689 5691 5692 5693 5694 5694 5695 5696 5696 5695 5695 5695 5694 5692 5691 5690 5688 5685 5682 5680 5677 5675 5671 5668
5627 5631 5635 5638 5642 5645 5648 5651 5654 5657 5659 5662 5664 5667 5669 5671 5673 5675 5676 5678 5679 5680 5681 5682 5683 5684 5684 5684 5684 5683 5683 5682 5681 5679 5677 5675 5672 5669 5667 5664 5661 5658 5654
5617 5621 5625 5628 5632 5635 5638 5641 5644 5647 5649 5652 5654 5656 5658 5660 5662 5663 5665 5667 5668 5669 5670 5671 5671 5672 5672 5672 5672 5671 5671 5670 5669 5667 5664 5662 5659 5656 5653 5650 5646 5644 5641
5607 5611 5614 5618 5621 5624 5627 5630 5633 5636 5638 5641 5643 5645 5647 5649 5650 5652 5653 5655 5656 5658 5658 5659 5660 5660 5660 5660 5660 5659 5658 5657 5655 5653 5651 5648 5645 5643 5639 5636 5632 5628 5624
5597 5600 5603 5607 5610 5613 5616 5619 5622 5624 5627 5629 5631 5633 5635 5637 5639 5640 5642 5643 5644 5646 5647 5648 5648 5648 5648 5648 5648 5647 5645 5644 5642 5640 5638 5635 5631 5628 5625 5622 5618 5614 5611
5586 5589 5592 5596 5599 5602 5605 5608 5610 5613 5615 5617 5619 5621 5623 5625 5627 5628 5630 5631 5632 5634 5635 5635 5636 5636 5636 5636 5635 5634 5633 5631 5628 5626 5623 5620 5617 5614 5610 5607 5603 5599 5596
5575 5579 5582 5584 5587 5591 5594 5596 5599 5601 5603 5605 5607 5609 5611 5613 5615 5617 5618 5619 5620 5621 5622 5623 5623 5624 5623 5622 5622 5621 5620 5618 5616 5613 5610 5607 5603 5600 5596 5592 5588 5584 5580
5565 5568 5571 5573 5576 5579 5582 5584 5587 5589 5591 5594 5596 5598 5599 5601 5603 5605 5606 5607 5608 5609 5610 5610 5610 5610 5610 5609 5608 5607 5606 5604 5602 5599 5596 5593 5589 5585 5582 5577 5573 5569 5566
5554 5557 5559 5562 5565 5568 5570 5573 5575 5577 5580 5582 5584 5586 5588 5590 5591 5592 5594 5594 5595 5596 5597 5597 5597 5597 5596 5596 5595 5593 5592 5590 5588 5585 5582 5579 5575 5572 5568 5564 5560 5556 5552
5544 5546 5549 5552 5554 5557 5559 5562 5564 5566 5569 5571 5573 5575 5576 5578 5579 5581 5582 5583 5583 5584 5584 5584 5584 5584 5583 5582 5581 5580 5578 5576 5573 5571 5568 5565 5561 5558 5554 5551 5547 5543 5540
5533 5536 5538 5541 5544 5546 5549 5551 5553 5556 5557 5559 5561 5563 5565 5566 5567 5569 5570 5570 5571 5571 5572 5572 5571 5570 5570 5569 5568 5566 5564 5562 5559 5557 5554 5551 5548 5545 5541 5538 5535 5531 5528
5523 5525 5528 5531 5533 5536 5538 5540 5542 5545 5547 5549 5551 5552 5553 5555 5556 5557 5557 5558 5559 5559 5559 5559 5559 5558 5557 5556 5555 5553 5551 5548 5546 5543 5540 5538 5535 5532 5529 5525 5522 5518 5515
5513 5515 5518 5520 5523 5525 5528 5530 5532 5534 5536 5538 5539 5541 5542 5543 5544 5545 5546 5546 5547 5547 5547 5547 5547 5546 5545 5544 5542 5540 5538 5535 5533 5530 5528 5525 5522 5519 5516 5513 5509 5506 5503
5504 5506 5508 5510 5513 5515 5518 5520 5522 5524 5525 5527 5529 5530 5531 5532 5533 5533 5534 5534 5534 5535 5535 5535 5534 5533 5532 5531 5529 5527 5525 5523 5520 5518 5515 5513 5510 5507 5504 5501 5497 5494 5491
5496 5497 5499 5501 5503 5505 5507 5509 5511 5513 5515 5516 5518 5519 5520 5521 5521 5522 5522 5523 5523 5523 5523 5523 5522 5521 5519 5518 5516 5514 5512 5510 5508 5505 5503 5500 5497 5494 5492 5488 5485 5481 5478
5487 5489 5490 5492 5494 5495 5497 5499 5501 5503 5504 5506 5507 5508 5508 5509 5510 5510 5510 5511 5511 5511 5511 5510 5509 5508 5506 5505 5503 5501 5499 5497 5495 5492 5490 5487 5485 5482 5479 5476 5473 5469 5466
5478 5480 5481 5483 5484 5486 5487 5489 5490 5492 5493 5495 5496 5497 5497 5498 5498 5499 5499 5499 5499 5498 5498 5497 5496 5494 5493 5491 5489 5488 5486 5484 5482 5480 5477 5475 5472 5470 5467 5464 5461 5458 5455
5469 5471 5472 5473 5474 5476 5477 5478 5480 5481 5482 5483 5485 5485 5486 5486 5487 5487 5487 5487 5486 5486 5485 5484 5482 5481 5480 5478 5476 5474 5473 5471 5469 5467 5465 5463 5460 5458 5455 5452 5450 5447 5444
5461 5462 5463 5464 5465 5466 5467 5468 5469 5470 5471 5472 5473 5473 5474 5474 5475 5475 5475 5474 5474 5473 5472 5471 5470 5468 5467 5465 5463 5462 5460 5459 5457 5455 5453 5451 5448 5446 5443 5441 5438 5436 5433
5452 5453 5453 5454 5455 5456 5456 5457 5458 5459 5459 5460 5461 5461 5462 5462 5462 5462 5462 5461 5461 5460 5459 5458 5457 5455 5453 5452 5451 5449 5448 5447 5445 5442 5440 5438 5436 5434 5431 5429 5427 5425 5423
5443 5443 5444 5444 5445 5445 5446 5447 5447 5448 5448 5448 5449 5449 5449 5449 5449 5449 5449 5449 5448 5447 5446 5445 5444 5442 5441 5440 5438 5437 5435 5434 5432 5430 5428 5426 5424 5422 5420 5418 5416 5414 5412
5433 5433 5434 5434 5434 5435 5435 5436 5436 5436 5437 5437 5437 5437 5437 5437 5437 5437 5436 5436 5435 5435 5434 5433 5431 5430 5429 5428 5427 5425 5423 5422 5420 5418 5417 5415 5413 5411 5409 5407 5405 5403 5401
5423 5423 5424 5424 5424 5424 5425 5425 5425 5426 5426 5426 5426 5426 5426 5425 5425 5425 5424 5424 5423 5422 5421 5420 5419 5418 5418 5416 5415 5414 5412 5411 5409 5408 5406 5404 5403 5401 5399 5397 5395 5393 5391
Wind_Speed
38 38 39 39 39 40 40 40 39 38 37 38 38 39 39 39 39 40 40 41 42 42 42 42 43 43 42 42 42 42 43 44 44 45 45 46 48 48 48 49 50 50 52
38 39 39 38 39 39 40 40 40 39 39 39 39 39 39 39 40 40 40 41 43 44 44 45 45 44 44 44 43 43 44 45 46 47 47 47 49 50 51 51 51 52 54
38 39 39 39 39 39 39 40 41 41 40 40 40 40 41 41 41 42 42 43 43 45 45 46 45 45 45 44 45 45 45 46 47 47 48 49 49 50 51 52 53 54 55
39 39 39 39 39 39 40 41 41 42 41 41 41 40 42 43 43 43 44 44 44 45 45 45 45 46 46 45 45 45 46 46 47 48 49 50 50 50 51 52 53 54 55
40 40 40 40 40 41 41 42 42 42 42 42 43 42 42 43 44 44 45 45 45 46 46 46 46 46 46 46 46 46 46 47 48 49 50 50 51 51 52 53 53 54 55
41 41 41 41 41 42 42 43 43 43 43 43 43 43 44 44 45 45 45 46 46 45 46 46 47 47 47 47 47 47 48 49 49 50 51 51 52 53 53 54 55 55 56
41 41 42 42 42 43 43 43 44 44 44 45 44 44 44 45 46 46 45 45 46 47 46 46 46 47 48 47 48 49 49 50 50 51 52 52 52 53 55 55 55 56 55
42 42 42 43 43 44 44 45 45 44 45 45 46 46 46 46 47 46 46 46 46 46 47 47 47 48 49 49 48 49 49 50 51 52 52 53 53 54 55 55 55 55 55
42 42 42 43 43 44 45 45 45 45 45 45 45 45 45 45 45 46 46 46 47 47 48 48 48 48 49 49 49 50 50 51 52 53 53 53 54 55 56 56 56 56 54
41 42 43 43 43 44 45 45 44 45 45 44 44 44 44 45 45 45 46 46 46 47 47 48 48 49 49 49 50 51 51 52 53 53 54 54 55 55 56 56 56 55 54
40 41 42 43 43 43 43 43 43 43 44 44 44 44 44 45 45 45 44 44 45 46 47 47 49 49 50 51 51 51 52 53 53 54 54 55 55 55 55 54 54 53 52
39 40 41 41 42 42 42 42 42 42 42 42 42 43 44 44 44 44 44 44 44 45 46 47 48 49 50 50 51 52 52 53 54 54 54 53 53 52 52 52 51 51 50
39 40 40 40 40 41 41 40 41 41 41 41 41 41 41 42 42 42 43 43 43 44 44 45 46 47 48 49 50 50 51 52 53 54 53 52 51 51 50 49 49 49 49
39 39 39 39 39 39 40 40 39 40 40 40 40 40 41 41 41 42 42 42 43 43 44 44 46 46 47 47 48 49 50 51 52 52 51 49 48 48 48 48 48 48 48
37 38 38 38 38 38 38 39 39 39 39 40 40 40 40 40 40 41 41 41 42 43 44 44 45 45 46 46 47 47 48 49 49 49 48 47 47 47 47 47 47 47 47
35 36 37 37 37 38 38 38 38 38 38 39 39 39 39 40 40 41 41 42 43 43 44 44 44 45 46 46 47 47 48 48 48 47 47 47 47 46 46 46 47 47 47
33 34 35 36 36 36 37 37 37 37 38 38 39 39 40 40 40 41 41 41 42 42 43 44 45 46 46 47 47 47 47 47 46 46 46 47 46 45 45 45 45 46 45
30 31 32 33 35 36 37 38 37 38 38 38 38 39 40 40 40 40 40 41 42 43 43 44 45 45 45 46 47 47 46 46 46 45 45 45 44 44 44 44 44 44 43
29 30 31 31 33 34 36 37 37 38 38 39 39 39 39 40 40 40 40 41 41 42 43 44 45 45 45 46 47 47 46 45 45 44 43 43 43 43 43 43 43 42 42
30 30 31 32 32 33 34 35 36 37 37 37 37 38 39 40 40 41 41 41 41 42 43 44 44 45 45 45 45 45 45 44 43 43 43 43 43 43 42 42 42 41 41
30 30 31 32 32 32 33 34 35 36 36 36 37 37 38 39 39 40 40 41 41 42 42 43 43 44 44 44 44 44 43 43 42 42 42 42 42 42 42 41 41 40 39
29 30 30 31 32 32 33 34 35 35 36 37 37 38 39 39 39 40 40 40 40 41 41 42 42 43 43 43 42 42 41 41 42 42 42 42 42 42 41 40 40 38 37
28 29 31 31 32 33 33 33 34 35 36 37 38 39 40 40 41 40 40 40 40 41 41 41 42 42 42 41 41 40 41 41 41 41 41 41 41 40 39 38 37 37 37
29 30 30 31 32 32 33 33 34 35 36 36 37 37 38 38 39 39 40 40 41 41 41 41 41 40 40 39 40 40 40 40 40 39 39 39 38 37 37 37 37 36 36
29 30 30 31 31 31 32 33 33 34 34 35 35 35 36 37 37 38 38 39 40 40 40 39 39 38 38 38 38 38 39 38 38 37 37 36 35 35 35 35 35 35 35
29 30 30 30 30 30 31 31 32 32 33 33 33 34 34 35 35 36 37 37 37 37 37 37 37 37 37 37 37 37 37 36 35 35 34 33 33 33 33 33 33 34 35
Wind_Direction
236 236 236 237 238 239 239 240 242 243 243 244 244 245 246 246 246 247 248 249 251 252 254 256 259 261 263 264 266 268 270 272 273 274 276 277 278 278 279 279 279 281 282
236 235 235 237 239 240 241 242 242 243 244 245 244 246 247 248 248 249 251 253 254 254 255 258 260 262 263 264 266 269 271 272 273 275 276 278 279 280 280 280 281 282 283
237 237 237 238 240 241 242 244 244 244 245 245 246 247 249 250 251 252 253 255 256 257 258 259 261 262 263 265 268 270 271 272 274 275 277 278 280 281 281 282 283 284 285
238 238 239 240 241 241 243 244 245 245 246 246 247 249 250 250 252 254 254 255 257 258 259 260 261 262 263 265 267 269 271 273 275 276 278 280 281 282 283 283 284 285 286
238 239 241 242 242 242 243 244 245 246 247 248 249 250 252 253 253 254 256 257 258 259 258 259 261 262 263 264 266 269 271 274 276 278 279 281 282 283 284 284 285 286 287
239 240 241 241 242 242 243 245 245 246 247 248 249 251 253 254 254 255 258 259 258 259 260 260 261 263 264 266 267 270 272 275 277 279 281 282 283 284 283 285 286 286 287
240 241 242 243 243 243 244 245 247 247 248 248 249 251 253 254 254 255 256 257 258 258 259 261 262 264 266 267 269 271 274 276 278 280 281 282 283 284 284 285 286 288 289
241 242 244 245 245 246 246 247 248 249 250 251 251 252 252 252 253 253 255 256 258 259 260 262 264 265 267 268 271 273 275 277 278 280 282 283 283 283 284 286 287 288 289
242 243 244 245 246 247 248 249 250 250 251 252 252 252 253 253 254 255 256 257 259 260 261 262 264 266 268 269 272 274 276 277 279 280 282 283 284 284 285 286 288 288 289
243 244 245 245 247 248 249 250 250 252 253 253 253 252 253 254 255 256 257 258 259 261 263 264 265 266 268 269 272 274 276 278 280 281 282 284 284 285 285 287 287 288 289
245 245 245 246 248 249 250 251 251 251 252 253 253 253 254 255 255 256 258 259 260 261 264 265 266 267 269 271 272 274 276 278 280 281 282 283 284 284 285 287 288 289 289
246 246 245 247 248 250 251 251 251 250 251 253 253 254 255 256 257 257 258 260 262 262 264 266 267 269 271 271 273 275 277 279 280 281 282 283 285 285 286 287 288 288 289
246 245 246 247 249 250 251 251 251 251 253 254 255 256 257 257 258 259 260 261 262 264 265 267 268 269 271 273 274 276 278 280 281 281 282 284 285 286 286 287 287 288 289
247 246 246 247 248 248 250 251 251 252 254 255 257 258 258 258 259 260 261 262 263 265 266 268 270 271 272 273 275 277 279 281 282 283 283 284 285 285 286 287 288 288 288
247 247 248 248 248 248 249 250 251 252 254 255 256 257 259 259 260 261 262 264 266 268 269 270 271 273 274 275 277 279 281 283 283 284 284 285 285 286 286 287 288 288 288
248 248 247 247 247 247 248 250 252 253 254 255 256 258 259 260 260 262 263 265 266 268 269 271 272 274 276 277 278 280 282 282 282 283 283 284 285 285 286 287 288 288 288
248 248 248 248 247 248 248 250 251 252 254 256 257 257 259 260 260 261 263 264 265 266 269 271 273 275 277 278 280 281 282 281 281 282 283 284 285 285 286 287 288 288 288
248 248 249 249 249 249 250 251 251 252 254 256 256 258 260 262 263 263 264 265 266 267 269 271 274 276 277 278 280 280 279 279 280 281 282 283 284 285 286 288 289 289 288
249 250 250 250 251 251 250 250 251 253 254 255 256 258 260 262 263 264 265 267 268 269 271 273 275 276 277 278 279 278 278 278 280 281 281 282 284 285 286 288 289 289 289
250 250 250 251 253 253 251 251 252 253 254 256 258 260 261 262 264 266 268 270 270 271 272 274 276 277 277 277 277 277 277 278 279 280 281 283 284 285 286 288 289 289 289
252 252 253 254 254 254 255 255 255 255 256 258 259 261 263 264 265 267 269 270 271 273 274 275 276 277 278 277 277 277 278 278 278 280 281 283 284 285 286 287 288 288 287
253 253 254 255 256 256 257 258 258 258 259 260 261 262 264 265 267 268 269 270 272 273 275 276 277 278 278 277 276 276 276 278 279 280 281 282 283 284 285 285 287 286 286
255 256 256 257 258 258 259 259 259 260 261 262 263 264 265 266 267 268 270 271 273 274 275 277 277 277 276 275 275 275 277 278 279 280 281 282 283 284 283 284 285 285 286
259 260 260 260 260 260 261 261 262 263 263 264 265 265 265 266 267 269 270 272 273 274 275 276 277 276 275 275 276 277 278 279 280 281 282 282 282 282 283 283 283 284 284
263 263 263 262 262 262 263 264 264 265 265 265 266 266 267 267 268 269 271 272 273 274 275 276 276 275 275 276 277 278 279 279 279 279 280 281 281 282 283 283 283 283 283
265 264 264 263 264 264 264 264 265 265 266 266 267 268 268 269 270 271 272 274 274 275 276 277 277 276 277 278 279 279 279 278 278 279 280 281 282 283 283 284 284 283 284